Location: Alvis C Story Elementary School
(33.0968°N, 96.6364°W)
Time: 07:35:24
(UTC+00:00)

Cosmos 1602 - Pass Details

Date: 10 July 2022
Orbit: 509 x 526 km, 82.5° (Epoch: 14 August)

Event Time Altitude Azimuth Distance (km) Brightness Sun altitude
Exits shadow 08:35:42 25° 342° (NNW) 1,064 5.6 -27.3°
Drops below altitude 10° 08:37:29 10° 355° (N) 1,734 7.0 -27.1°
Sets 08:39:40 0° 0° (N) 2,626 8.1 -26.9°
